Location: Sundre
(51.7972°N, 114.6405°W)
Time: 03:57:38
(UTC-07:00)

TIGRISAT - Pass Details

Date: 31 January 2020
Orbit: 605 x 690 km, 97.7° (Epoch: 19 February)

Event Time Altitude Azimuth Distance (km) Brightness Sun altitude
Rises 07:07:36 0° 131° (SE) 2,890 ? -11.2°
Reaches altitude 10° 07:10:03 10° 119° (ESE) 1,977 ? -10.9°
Maximum altitude 07:13:36 26° 63° (ENE) 1,223 ? -10.4°
Drops below altitude 10° 07:17:07 10° 7° (N) 1,968 ? -9.8°
Sets 07:19:33 0° 355° (N) 2,874 ? -9.5°
